Location: Unspecified
(0.0000°N, 0.0000°E)
Time: 02:42:19
(UTC+00:00)

N. Korean satellite - Pass Details

Date: 02 March 2021
Orbit: 451 x 503 km, 97.2° (Epoch: 24 February)

Event Time Altitude Azimuth Distance (km) Brightness Sun altitude
Rises 04:29:11 0° 31° (NNE) 2,541 10.5 -25.5°
Reaches altitude 10° 04:31:29 10° 45° (NE) 1,673 9.7 -25.0°
Maximum altitude 04:34:29 25° 101° (ESE) 1,037 8.9 -24.2°
Drops below altitude 10° 04:37:31 10° 157° (SSE) 1,698 9.7 -23.5°
Sets 04:39:52 0° 171° (S) 2,589 10.5 -22.9°
